FW7092 Weather Reports


Display with metric or nautical units.
time (UTC)temp
F
wind
direction
speed
MPH
gust
MPH
rain 1hr
in
rain 24hr
in
rain mn
in
humidity
%
barometer
mb
20260506062039 46 246 1.0 2.0 0.07 0.09 0.09 98 1012.1
20260506061535 46 231 0.0 1.0 0.07 0.09 0.09 98 1012.3
20260506061033 46 235 0.0 0.0 0.00 0.08 0.08 98 1012.1
20260506060531 46 235 0.0 0.0 0.00 0.08 0.08 98 1012.2
20260506051000 46 239 0.0 0.0 0.07 0.07 0.07 98 1012.3
20260506050458 46 237 0.0 0.0 0.00 0.06 0.06 98 1012.1
20260506044948 46 331 1.0 1.0 0.07 0.05 0.05 98 1012.2
20260506044446 46 230 0.0 1.0 0.07 0.05 0.05 98 1012.0
20260506043943 46 245 1.0 1.0 0.07 0.04 0.04 98 1012.0
20260506043440 46 222 1.0 2.0 0.07 0.04 0.04 98 1012.0
20260506042938 46 226 2.0 3.0 0.07 0.02 0.02 98 1012.1
20260506042437 47 301 1.0 2.0 0.07 0.02 0.02 98 1012.0
20260506041935 47 254 0.0 1.0 0.00 0.01 0.01 98 1012.2
20260506041432 47 232 0.0 0.0 0.07 0.01 0.01 98 1012.0
20260506040929 47 253 1.0 2.0 0.00 0.00 0.00 98 1012.1
20260506040427 48 247 3.0 5.0 0.00 0.00 0.00 98 1011.9
20260506035923 48 233 1.0 2.0 0.00 0.32 0.32 99 1012.0
20260506035420 48 222 1.0 1.0 0.00 0.32 0.32 99 1011.9
20260506034917 48 226 1.0 2.0 0.00 0.32 0.32 99 1012.1
20260506034414 48 216 1.0 2.0 0.00 0.32 0.32 99 1011.9
20260506033911 48 216 1.0 2.0 0.00 0.32 0.32 99 1011.9
20260506033408 48 210 2.0 2.0 0.00 0.32 0.32 99 1011.7
20260506032905 48 216 1.0 2.0 0.00 0.32 0.32 99 1011.9
20260506032402 48 216 2.0 2.0 0.00 0.32 0.32 98 1011.8
20260506031858 48 219 2.0 2.0 0.00 0.32 0.32 98 1012.1
20260506031356 48 214 2.0 2.0 0.07 0.32 0.32 98 1011.7
20260506030854 48 212 1.0 2.0 0.07 0.32 0.32 98 1012.2
20260506030352 48 222 3.0 3.0 0.00 0.31 0.31 98 1012.2
20260506025848 48 219 2.0 3.0 0.00 0.31 0.31 98 1012.0
20260506025345 48 226 2.0 2.0 0.00 0.31 0.31 98 1012.1
20260506024842 48 212 1.0 1.0 0.00 0.31 0.31 98 1012.1
20260506024338 48 218 1.0 3.0 0.00 0.31 0.31 98 1012.1
20260506023835 48 215 2.0 2.0 0.00 0.31 0.31 98 1012.1
20260506023332 48 214 3.0 3.0 0.00 0.31 0.31 98 1012.1
20260506022828 48 225 2.0 2.0 0.00 0.31 0.31 98 1012.1
20260506022326 48 222 2.0 2.0 0.07 0.31 0.31 98 1012.1
20260506021824 48 225 1.0 2.0 0.07 0.31 0.31 98 1012.0
20260506021320 48 212 2.0 3.0 0.00 0.29 0.29 98 1012.1
20260506020817 48 211 2.0 2.0 0.00 0.29 0.29 98 1012.2
20260506020315 48 218 3.0 5.0 0.07 0.29 0.29 98 1012.3
20260506015813 48 232 3.0 5.0 0.07 0.29 0.29 98 1012.2
20260506015310 48 206 3.0 3.0 0.00 0.28 0.28 98 1012.0
20260506014806 48 214 3.0 5.0 0.07 0.28 0.28 98 1012.0
20260506014304 48 233 3.0 3.0 0.07 0.28 0.28 97 1012.0
20260506013800 48 217 2.0 3.0 0.00 0.27 0.27 97 1011.8
20260506013257 48 212 3.0 3.0 0.00 0.27 0.27 97 1011.7
20260506012754 48 228 3.0 3.0 0.00 0.27 0.27 97 1011.8
20260506012251 48 217 3.0 3.0 0.00 0.27 0.27 97 1011.4
20260506011748 48 211 3.0 5.0 0.00 0.27 0.27 97 1011.6
20260506011244 48 207 3.0 3.0 0.00 0.27 0.27 97 1011.6
20260506010743 48 227 3.0 3.0 0.07 0.27 0.27 97 1011.7
20260506010240 48 215 3.0 5.0 0.07 0.27 0.27 97 1011.4
20260506005737 48 216 2.0 3.0 0.00 0.26 0.26 97 1011.4
20260506005233 48 215 3.0 3.0 0.00 0.26 0.26 97 1011.4
20260506004729 48 232 2.0 3.0 0.00 0.26 0.26 97 1011.4
20260506004227 48 225 3.0 3.0 0.00 0.26 0.26 97 1011.4
20260506003723 48 213 1.0 3.0 0.00 0.26 0.26 96 1011.4
20260506003220 48 223 1.0 2.0 0.00 0.26 0.26 96 1011.4
20260506002715 48 230 2.0 2.0 0.00 0.26 0.26 96 1011.6
20260506002212 48 230 3.0 5.0 0.07 0.26 0.26 96 1011.4
20260506001707 48 223 3.0 5.0 0.00 0.25 0.25 96 1011.5
20260506001206 48 211 3.0 5.0 0.00 0.25 0.25 96 1011.5
20260506000702 48 226 3.0 5.0 0.07 0.25 0.25 96 1011.3
20260506000200 48 225 3.0 5.0 0.07 0.25 0.25 95 1011.5
20260505235657 48 211 3.0 5.0 0.00 0.24 0.24 95 1011.3
20260505235155 48 215 4.0 5.0 0.00 0.24 0.24 95 1011.3
20260505234651 48 216 4.0 5.0 0.00 0.24 0.24 95 1011.3
20260505234148 48 208 3.0 3.0 0.00 0.24 0.24 95 1011.3
20260505233645 49 235 4.0 5.0 0.00 0.24 0.24 94 1011.4
20260505233143 49 215 3.0 3.0 0.07 0.24 0.24 94 1011.2
20260505232640 49 237 3.0 3.0 0.07 0.24 0.24 94 1011.2
20260505232138 49 230 3.0 5.0 0.00 0.22 0.22 94 1011.2
20260505231634 49 229 4.0 5.0 0.00 0.22 0.22 93 1011.2
20260505231133 49 233 2.0 3.0 0.00 0.22 0.22 93 1011.4
20260505230631 49 214 2.0 2.0 0.07 0.22 0.22 92 1011.1
20260505230127 49 241 1.0 2.0 0.07 0.22 0.22 91 1011.0
20260505225623 49 234 1.0 2.0 0.00 0.21 0.21 92 1011.2
20260505225120 50 226 1.0 2.0 0.00 0.21 0.21 92 1011.1
20260505224616 49 209 3.0 3.0 0.07 0.21 0.21 91 1011.1
20260505224114 50 215 1.0 1.0 0.07 0.21 0.21 91 1011.0
20260505223611 50 220 1.0 2.0 0.00 0.20 0.20 91 1010.9
20260505223107 50 225 0.0 1.0 0.00 0.20 0.20 89 1011.1
20260505222603 50 211 3.0 3.0 0.07 0.20 0.20 89 1011.2
20260505222059 50 229 1.0 1.0 0.07 0.20 0.20 90 1011.1
20260505221557 50 235 1.0 1.0 0.00 0.19 0.19 90 1011.1
20260505221053 50 245 3.0 3.0 0.07 0.19 0.19 89 1011.2
20260505220550 50 258 3.0 3.0 0.07 0.19 0.19 90 1011.3
20260505220048 50 235 3.0 3.0 0.00 0.18 0.18 91 1011.0
20260505215546 50 237 1.0 1.0 0.00 0.18 0.18 91 1011.3
20260505215044 50 221 0.0 0.0 0.00 0.18 0.18 92 1011.1
20260505214542 50 259 1.0 1.0 0.07 0.18 0.18 92 1011.2
20260505214038 50 240 1.0 2.0 0.14 0.18 0.18 92 1011.1
20260505213536 50 297 2.0 2.0 0.14 0.17 0.17 92 1010.8
20260505213032 50 283 2.0 3.0 0.14 0.15 0.15 92 1010.6
20260505212528 50 260 1.0 3.0 0.14 0.14 0.14 93 1010.9
20260505212026 50 298 1.0 2.0 0.14 0.13 0.13 92 1010.8
20260505211523 50 321 1.0 2.0 0.14 0.12 0.12 92 1011.0
20260505211020 50 273 1.0 2.0 0.07 0.09 0.09 92 1011.2
20260505210516 50 11 2.0 3.0 0.07 0.08 0.08 91 1011.1
20260505210014 50 336 2.0 5.0 0.14 0.07 0.07 91 1011.0
20260505205512 50 298 2.0 5.0 0.07 0.06 0.06 92 1011.1
20260505205008 50 278 2.0 3.0 0.00 0.05 0.05 92 1010.8
20260505204506 50 254 1.0 5.0 0.07 0.05 0.05 92 1010.8
20260505204003 51 251 3.0 3.0 0.00 0.04 0.04 91 1011.0
20260505203500 50 0 2.0 7.0 0.07 0.04 0.04 91 1011.1
20260505202956 51 346 3.0 6.0 0.07 0.04 0.04 91 1011.2
20260505202453 51 270 4.0 6.0 0.00 0.02 0.02 91 1011.1
20260505201949 51 226 2.0 5.0 0.07 0.02 0.02 91 1010.9
20260505201446 52 287 1.0 1.0 0.00 0.01 0.01 90 1011.2
20260505200944 51 283 0.0 2.0 0.00 0.01 0.01 90 1011.2
20260505200441 51 266 2.0 5.0 0.00 0.01 0.01 89 1011.2
20260505195936 52 261 4.0 7.0 0.00 0.01 0.01 89 1011.4
20260505195434 52 330 4.0 5.0 0.07 0.01 0.01 88 1011.4
20260505194931 52 5 1.0 3.0 0.07 0.01 0.01 87 1011.2
20260505194428 52 331 5.0 6.0 0.00 0.00 0.00 87 1011.3
20260505193928 53 261 6.0 8.0 0.00 0.00 0.00 88 1011.5
20260505193426 53 249 3.0 6.0 0.00 0.00 0.00 89 1011.5
20260505192924 53 242 5.0 6.0 0.00 0.00 0.00 88 1011.5
20260505192422 53 245 5.0 7.0 0.00 0.00 0.00 88 1011.5
20260505191919 53 236 5.0 6.0 0.00 0.00 0.00 89 1011.4
20260505191418 53 239 5.0 7.0 0.00 0.00 0.00 88 1011.4
20260505190914 53 219 5.0 7.0 0.00 0.00 0.00 87 1011.2
20260505190410 53 229 4.0 8.0 0.00 0.00 0.00 87 1011.5
20260505185905 53 248 4.0 6.0 0.00 0.00 0.00 86 1011.3
20260505185402 53 255 5.0 7.0 0.00 0.00 0.00 85 1011.1
20260505184858 53 231 6.0 7.0 0.00 0.00 0.00 82 1011.2
20260505184355 53 231 4.0 5.0 0.00 0.00 0.00 83 1010.6
20260505183852 53 242 6.0 7.0 0.00 0.00 0.00 82 1011.1
20260505183349 53 250 6.0 7.0 0.00 0.00 0.00 85 1011.2
20260505182846 54 235 6.0 7.0 0.00 0.00 0.00 87 1011.4
20260505182343 54 228 5.0 7.0 0.00 0.00 0.00 85 1011.3
20260505181839 54 234 5.0 6.0 0.00 0.00 0.00 82 1011.0
20260505181336 54 227 4.0 5.0 0.00 0.00 0.00 81 1010.9
20260505180833 54 223 3.0 6.0 0.00 0.00 0.00 79 1010.9
20260505180330 55 241 4.0 5.0 0.00 0.00 0.00 77 1010.9
20260505175826 55 222 5.0 6.0 0.00 0.00 0.00 73 1010.5
20260505175323 55 238 5.0 8.0 0.00 0.00 0.00 71 1010.3
20260505174819 56 210 6.0 8.0 0.00 0.00 0.00 69 1010.4
20260505174317 57 205 5.0 8.0 0.00 0.00 0.00 70 1010.6
20260505173812 57 219 5.0 7.0 0.00 0.00 0.00 72 1010.3
20260505173309 57 241 5.0 6.0 0.00 0.00 0.00 74 1010.3
20260505172806 57 229 5.0 5.0 0.00 0.00 0.00 75 1010.2
20260505172306 58 216 5.0 6.0 0.00 0.00 0.00 71 1010.4
20260505171758 58 253 3.0 7.0 0.00 0.00 0.00 66 1010.5
20260505171255 58 243 3.0 3.0 0.00 0.00 0.00 67 1010.4
20260505170752 58 248 4.0 6.0 0.00 0.00 0.00 68 1010.4
20260505170249 57 229 3.0 5.0 0.00 0.00 0.00 69 1010.4
20260505165744 58 249 5.0 6.0 0.00 0.00 0.00 66 1010.6
20260505165240 58 272 4.0 9.0 0.00 0.00 0.00 64 1010.6
20260505164736 58 272 5.0 6.0 0.00 0.00 0.00 67 1010.6
20260505164233 58 264 5.0 8.0 0.00 0.00 0.00 68 1010.6
20260505163731 59 272 3.0 7.0 0.00 0.00 0.00 66 1010.8
20260505163230 59 274 5.0 5.0 0.00 0.00 0.00 64 1010.6
20260505162726 60 277 4.0 6.0 0.00 0.00 0.00 64 1010.7
20260505162223 60 263 5.0 9.0 0.00 0.00 0.00 69 1010.6
20260505161720 60 258 5.0 9.0 0.00 0.00 0.00 71 1010.7
20260505161218 60 259 6.0 13.0 0.00 0.00 0.00 71 1010.6
20260505160715 60 251 6.0 9.0 0.00 0.00 0.00 73 1010.5
20260505160213 59 288 6.0 13.0 0.00 0.00 0.00 75 1010.5
20260505153152 60 241 6.0 15.0 0.00 0.00 0.00 78 1010.3
20260505152649 60 248 11.0 15.0 0.00 0.00 0.00 77 1010.2
20260505152144 60 258 12.0 18.0 0.00 0.00 0.00 77 1010.2
20260505151640 61 265 13.0 16.0 0.00 0.00 0.00 76 1010.1
20260505151138 61 257 6.0 13.0 0.00 0.00 0.00 78 1010.2
20260505150633 60 269 14.0 16.0 0.00 0.00 0.00 78 1010.2
20260505150131 60 245 15.0 16.0 0.00 0.00 0.00 78 1010.1
20260505140559 61 241 10.0 15.0 0.00 0.00 0.00 78 1007.8
20260505125013 60 242 10.0 16.0 0.00 0.00 0.00 81 1007.7
20260505124509 60 251 12.0 16.0 0.00 0.00 0.00 81 1007.8
20260505124006 60 225 12.0 16.0 0.00 0.00 0.00 80 1007.8
20260505123502 60 232 13.0 20.0 0.00 0.00 0.00 80 1008.1
20260505122958 59 226 12.0 15.0 0.00 0.00 0.00 82 1008.1
20260505122455 59 234 10.0 13.0 0.00 0.00 0.00 83 1008.0
20260505121952 58 235 10.0 14.0 0.00 0.00 0.00 84 1007.9
20260505121443 58 239 14.0 16.0 0.00 0.00 0.00 84 1008.0
20260505120939 58 246 12.0 17.0 0.00 0.00 0.00 83 1008.1
20260505120436 58 241 7.0 14.0 0.00 0.00 0.00 84 1008.1
20260505115935 58 247 7.0 14.0 0.00 0.00 0.00 85 1008.0
20260505115432 58 236 10.0 11.0 0.00 0.00 0.00 85 1008.0
20260505114930 58 225 10.0 13.0 0.00 0.00 0.00 84 1008.0
20260505114425 57 245 8.0 13.0 0.00 0.00 0.00 85 1008.0
20260505113922 57 230 8.0 11.0 0.00 0.00 0.00 85 1007.8
20260505113419 57 252 10.0 10.0 0.00 0.00 0.00 85 1007.5
20260505112915 57 220 8.0 9.0 0.00 0.00 0.00 85 1007.4
20260505112413 57 235 8.0 11.0 0.00 0.00 0.00 84 1007.2
20260505111908 57 240 7.0 8.0 0.00 0.00 0.00 84 1007.1
20260505111403 57 222 6.0 9.0 0.00 0.00 0.00 84 1007.0
20260505110900 57 235 7.0 9.0 0.00 0.00 0.00 84 1006.6
20260505110357 57 217 8.0 9.0 0.00 0.00 0.00 84 1006.5
20260505101827 58 236 9.0 11.0 0.00 0.00 0.00 81 1006.0
20260505101322 58 219 11.0 15.0 0.00 0.00 0.00 81 1005.7
20260505100818 58 232 11.0 14.0 0.00 0.00 0.00 81 1005.8
20260505100315 59 216 10.0 15.0 0.00 0.00 0.00 79 1005.7
20260505095811 59 215 10.0 14.0 0.00 0.00 0.00 79 1005.9
20260505095309 59 244 13.0 17.0 0.00 0.00 0.00 77 1006.0
20260505094804 59 210 10.0 14.0 0.00 0.00 0.00 78 1005.9
20260505094301 59 218 9.0 14.0 0.00 0.00 0.00 78 1005.9
20260505093757 59 227 13.0 16.0 0.00 0.00 0.00 77 1005.7
20260505093255 59 214 9.0 14.0 0.00 0.00 0.00 76 1005.7
20260505092751 60 231 11.0 15.0 0.00 0.00 0.00 74 1005.7
20260505092250 60 222 9.0 11.0 0.00 0.00 0.00 74 1005.5
20260505091747 59 237 10.0 11.0 0.00 0.00 0.00 75 1005.4
20260505091245 59 231 8.0 11.0 0.00 0.00 0.00 77 1005.4
20260505090742 59 205 9.0 9.0 0.00 0.00 0.00 77 1005.3
20260505090240 59 241 7.0 10.0 0.00 0.00 0.00 78 1005.3
20260505085737 59 191 8.0 11.0 0.00 0.00 0.00 80 1005.2
20260505085236 59 231 7.0 10.0 0.00 0.00 0.00 80 1005.3
20260505084732 59 218 9.0 10.0 0.00 0.00 0.00 80 1005.3
20260505084232 59 239 7.0 9.0 0.00 0.00 0.00 81 1005.3
20260505083728 59 212 11.0 14.0 0.00 0.00 0.00 81 1005.3
20260505083225 59 220 10.0 16.0 0.00 0.00 0.00 81 1005.3
20260505082721 60 229 9.0 13.0 0.00 0.00 0.00 80 1005.2
20260505082218 60 220 9.0 15.0 0.00 0.00 0.00 80 1005.2
20260505081713 60 243 11.0 16.0 0.00 0.00 0.00 79 1005.3
20260505081211 60 221 14.0 17.0 0.00 0.00 0.00 78 1004.9
20260505080708 60 210 11.0 16.0 0.00 0.00 0.00 79 1004.8
20260505080204 61 230 13.0 17.0 0.00 0.00 0.00 77 1004.9
20260505075700 62 198 13.0 17.0 0.00 0.00 0.00 75 1004.8
20260505075157 62 250 11.0 18.0 0.00 0.00 0.00 73 1004.9
20260505074654 62 230 10.0 15.0 0.00 0.00 0.00 74 1004.9
20260505074151 62 218 15.0 17.0 0.00 0.00 0.00 73 1004.9
20260505073649 61 206 7.0 14.0 0.00 0.00 0.00 75 1004.8
20260505073147 61 251 9.0 10.0 0.00 0.00 0.00 75 1004.7
20260505072642 61 212 12.0 14.0 0.00 0.00 0.00 76 1004.7
20260505072139 61 220 7.0 10.0 0.00 0.00 0.00 76 1004.4
20260505071634 61 225 9.0 11.0 0.00 0.00 0.00 75 1004.2
20260505071132 60 211 6.0 8.0 0.00 0.00 0.00 76 1004.6
20260505070629 60 193 5.0 8.0 0.00 0.00 0.00 78 1004.6
20260505070125 60 214 5.0 6.0 0.00 0.00 0.00 78 1004.7
20260505065622 60 210 5.0 8.0 0.00 0.00 0.00 78 1004.8
20260505065118 60 209 5.0 6.0 0.00 0.00 0.00 77 1004.8
20260505064615 61 210 5.0 6.0 0.00 0.00 0.00 76 1004.7
20260505064114 61 214 6.0 8.0 0.00 0.00 0.00 76 1005.1
20260505063611 61 218 5.0 7.0 0.00 0.00 0.00 76 1005.3
20260505063106 62 219 5.0 7.0 0.00 0.00 0.00 75 1005.4
20260505062603 62 229 5.0 6.0 0.00 0.00 0.00 74 1005.2